,,Stat6,,Stat2,,Stat8,,Stat9,,Stat10,,Wind1,,Wind1,
time,status,PA1M_AVG,status,PR1M_SUM,status,RH1M_AVG,status,SR1M_AVG,status,TA1M_AVG,status,W1dAve1m,status,W1sAve1m,
2004-02-04, 00:00:00,VALID,917.863,VALID,0,VALID,86.1512,VALID,0,VALID,19.5725,VALID,110,VALID,1.07984,
2004-02-04, 00:01:00,VALID,917.869,VALID,0,VALID,86.4081,VALID,0,VALID,19.5847,VALID,117,VALID,1.18986,
2004-02-04, 00:02:00,VALID,917.858,VALID,0,VALID,86.6128,VALID,0,VALID,19.5917,VALID,120,VALID,1.32161,
2004-02-04, 00:03:00,VALID,917.854,VALID,0,VALID,86.506,VALID,0,VALID,19.572,VALID,114,VALID,1.29184,
2004-02-04, 00:04:00,VALID,917.837,VALID,0,VALID,85.7672,VALID,0,VALID,19.5691,VALID,100,VALID,1.29488,
2004-02-04, 00:05:00,VALID,917.828,VALID,0,VALID,85.2191,VALID,0.0169808,VALID,19.5979,VALID,87,VALID,1.10215,
2004-02-04, 00:06:00,VALID,917.806,VALID,0,VALID,85.6299,VALID,0.0339617,VALID,19.6394,VALID,81,VALID,1.10719,
2004-02-04, 00:07:00,VALID,917.804,VALID,0,VALID,85.7799,VALID,0,VALID,19.6232,VALID,80,VALID,1.17578,
2004-02-04, 00:08:00,VALID,917.778,VALID,0,VALID,85.7583,VALID,0.0169808,VALID,19.6006,VALID,87,VALID,1.15796,
2004-02-04, 00:09:00,VALID,917.775,VALID,0,VALID,86.0965,VALID,0,VALID,19.6041,VALID,95,VALID,1.06641,
2004-02-04, 00:10:00,VALID,917.744,VALID,0,VALID,86.1894,VALID,0,VALID,19.5879,VALID,103,VALID,1.20406,
2004-02-04, 00:11:00,VALID,917.727,VALID,0,VALID,86.3763,VALID,0,VALID,19.5621,VALID,99,VALID,1.19074,
2004-02-04, 00:12:00,VALID,917.714,VALID,0,VALID,85.8702,VALID,0.0169808,VALID,19.5494,VALID,103,VALID,1.41309,
2004-02-04, 00:13:00,VALID,917.682,VALID,0,VALID,85.9503,VALID,0,VALID,19.5653,VALID,106,VALID,1.36737,
2004-02-04, 00:14:00,VALID,917.668,VALID,0,VALID,86.4958,VALID,0,VALID,19.5718,VALID,109,VALID,1.30525,
2004-02-04, 00:15:00,VALID,917.639,VALID,0,VALID,86.141,VALID,0.0169808,VALID,19.5527,VALID,121,VALID,1.7037,
2004-02-04, 00:16:00,VALID,917.594,VALID,0,VALID,85.8498,VALID,0.0339617,VALID,19.5815,VALID,119,VALID,1.72887,
2004-02-04, 00:17:00,VALID,917.573,VALID,0,VALID,86.2059,VALID,0,VALID,19.6232,VALID,118,VALID,1.4561,
2004-02-04, 00:18:00,VALID,917.539,VALID,0,VALID,86.4538,VALID,0,VALID,19.6401,VALID,122,VALID,1.47824,
2004-02-04, 00:19:00,VALID,917.526,VALID,0,VALID,86.3725,VALID,0,VALID,19.617,VALID,122,VALID,1.4349,
2004-02-04, 00:20:00,VALID,917.496,VALID,0,VALID,85.9579,VALID,0.0169808,VALID,19.6304,VALID,118,VALID,1.24323,
2004-02-04, 00:21:00,VALID,917.463,VALID,0,VALID,86.1766,VALID,0,VALID,19.6426,VALID,125,VALID,1.11192,
2004-02-04, 00:22:00,VALID,917.459,VALID,0,VALID,86.2707,VALID,0,VALID,19.6428,VALID,125,VALID,1.33519,
2004-02-04, 00:23:00,VALID,917.44,VALID,0,VALID,85.509,VALID,0,VALID,19.6332,VALID,122,VALID,1.32589,
2004-02-04, 00:24:00,VALID,917.417,VALID,0,VALID,84.2031,VALID,-0.0169808,VALID,19.6523,VALID,119,VALID,1.2706,
2004-02-04, 00:25:00,VALID,917.392,VALID,0,VALID,83.3448,VALID,0,VALID,19.7526,VALID,109,VALID,1.18713,
2004-02-04, 00:26:00,VALID,917.38,VALID,0,VALID,83.1222,VALID,0,VALID,19.8528,VALID,112,VALID,1.30599,
2004-02-04, 00:27:00,VALID,917.35,VALID,0,VALID,82.8616,VALID,0.0169808,VALID,19.9042,VALID,121,VALID,1.23609,
2004-02-04, 00:28:00,VALID,917.343,VALID,0,VALID,83.2214,VALID,-0.0169808,VALID,19.9432,VALID,125,VALID,1.24219,
2004-02-04, 00:29:00,VALID,917.301,VALID,0,VALID,83.7161,VALID,-0.101885,VALID,19.9541,VALID,127,VALID,1.32135,
2004-02-04, 00:30:00,VALID,917.284,VALID,0,VALID,84.1421,VALID,-0.0509425,VALID,19.9283,VALID,128,VALID,1.15339,
2004-02-04, 00:31:00,VALID,917.267,VALID,0,VALID,84.4104,VALID,-0.101885,VALID,19.8871,VALID,118,VALID,1.04226,
2004-02-04, 00:32:00,VALID,917.24,VALID,0,VALID,84.713,VALID,-0.101885,VALID,19.8379,VALID,126,VALID,0.826308,
2004-02-04, 00:33:00,VALID,917.237,VALID,0,VALID,85.1746,VALID,-0.101885,VALID,19.822,VALID,124,VALID,0.538318,
2004-02-04, 00:34:00,VALID,917.23,VALID,0,VALID,85.5434,VALID,-0.0849042,VALID,19.7735,VALID,124,VALID,0.264482,
2004-02-04, 00:35:00,VALID,917.214,VALID,0,VALID,85.9566,VALID,-0.0849042,VALID,19.7377,VALID,124,VALID,0.127804,
2004-02-04, 00:36:00,VALID,917.203,VALID,0,VALID,85.6883,VALID,-0.101885,VALID,19.6928,VALID,124,VALID,0.260603,
2004-02-04, 00:37:00,VALID,917.182,VALID,0,VALID,85.654,VALID,-0.101885,VALID,19.6607,VALID,124,VALID,0.317406,
2004-02-04, 00:38:00,VALID,917.165,VALID,0,VALID,85.935,VALID,-0.0849042,VALID,19.6346,VALID,124,VALID,0.197545,
2004-02-04, 00:39:00,VALID,917.15,VALID,0,VALID,86.6052,VALID,-0.0339617,VALID,19.6083,VALID,124,VALID,0.00363372,
2004-02-04, 00:40:00,VALID,917.121,VALID,0,VALID,87.2333,VALID,-0.0849042,VALID,19.573,VALID,124,VALID,0.0380609,
2004-02-04, 00:41:00,VALID,917.109,VALID,0,VALID,88.3333,VALID,-0.0849042,VALID,19.5402,VALID,124,VALID,0,
2004-02-04, 00:42:00,VALID,917.097,VALID,0,VALID,89.4612,VALID,-0.0849042,VALID,19.4888,VALID,124,VALID,0,
2004-02-04, 00:43:00,VALID,917.077,VALID,0,VALID,89.7778,VALID,-0.0509425,VALID,19.4304,VALID,124,VALID,0,
2004-02-04, 00:44:00,VALID,917.067,VALID,0,VALID,89.5833,VALID,0.0339617,VALID,19.3582,VALID,124,VALID,0,
2004-02-04, 00:45:00,VALID,917.052,VALID,0,VALID,89.7829,VALID,0,VALID,19.3038,VALID,124,VALID,0,
2004-02-04, 00:46:00,VALID,917.042,VALID,0,VALID,90.2674,VALID,0,VALID,19.2424,VALID,123,VALID,0.140807,
2004-02-04, 00:47:00,VALID,917.03,VALID,0,VALID,90.8752,VALID,-0.0169808,VALID,19.1979,VALID,122,VALID,0.0939405,
2004-02-04, 00:48:00,VALID,917.015,VALID,0,VALID,91.7603,VALID,0,VALID,19.1259,VALID,122,VALID,0.00213068,
2004-02-04, 00:49:00,VALID,917.001,VALID,0,VALID,92.096,VALID,0,VALID,19.045,VALID,122,VALID,0.0558036,
2004-02-04, 00:50:00,VALID,916.992,VALID,0,VALID,92.3732,VALID,0.0169808,VALID,18.9583,VALID,74,VALID,0.738948,
2004-02-04, 00:51:00,VALID,916.98,VALID,0,VALID,92.4444,VALID,0.0339617,VALID,18.8448,VALID,27,VALID,1.20605,
2004-02-04, 00:52:00,VALID,916.981,VALID,0,VALID,91.7603,VALID,0.0339617,VALID,18.7288,VALID,24,VALID,1.34146,
2004-02-04, 00:53:00,VALID,916.962,VALID,0,VALID,91.8925,VALID,0,VALID,18.6903,VALID,28,VALID,1.21953,
2004-02-04, 00:54:00,VALID,916.968,VALID,0,VALID,92.1646,VALID,0.0679233,VALID,18.6449,VALID,19,VALID,1.30522,
2004-02-04, 00:55:00,VALID,916.956,VALID,0,VALID,92.6059,VALID,0.0339617,VALID,18.5967,VALID,24,VALID,1.31806,
2004-02-04, 00:56:00,VALID,916.945,VALID,0,VALID,92.4863,VALID,0,VALID,18.5418,VALID,29,VALID,1.36081,
2004-02-04, 00:57:00,VALID,916.939,VALID,0,VALID,92.8182,VALID,0,VALID,18.5194,VALID,29,VALID,1.04638,
2004-02-04, 00:58:00,VALID,916.934,VALID,0,VALID,93.4426,VALID,0.0169808,VALID,18.4805,VALID,30,VALID,0.920346,
2004-02-04, 00:59:00,VALID,916.92,VALID,0,VALID,93.9322,VALID,-0.0339617,VALID,18.4422,VALID,42,VALID,1.07599,
2004-02-04, 01:00:00,VALID,916.899,VALID,0,VALID,94.1432,VALID,0,VALID,18.4325,VALID,49,VALID,0.998611,
2004-02-04, 01:01:00,VALID,916.898,VALID,0,VALID,94.3124,VALID,-0.0339617,VALID,18.43,VALID,51,VALID,0.899826,
2004-02-04, 01:02:00,VALID,916.889,VALID,0,VALID,94.3963,VALID,-0.0339617,VALID,18.4493,VALID,60,VALID,1.04705,
2004-02-04, 01:03:00,VALID,916.885,VALID,0,VALID,94.4955,VALID,-0.0169808,VALID,18.4491,VALID,58,VALID,1.08303,
2004-02-04, 01:04:00,VALID,916.876,VALID,0,VALID,94.5565,VALID,-0.0339617,VALID,18.4491,VALID,54,VALID,1.27915,
2004-02-04, 01:05:00,VALID,916.871,VALID,0,VALID,94.3925,VALID,-0.0679233,VALID,18.462,VALID,53,VALID,1.33239,
2004-02-04, 01:06:00,VALID,916.869,VALID,0,VALID,93.9042,VALID,0,VALID,18.4941,VALID,54,VALID,1.45082,
2004-02-04, 01:07:00,VALID,916.879,VALID,0,VALID,93.3549,VALID,-0.0509425,VALID,18.5296,VALID,58,VALID,1.46503,
2004-02-04, 01:08:00,VALID,916.894,VALID,0,VALID,92.8907,VALID,-0.0339617,VALID,18.5907,VALID,46,VALID,1.44885,
2004-02-04, 01:09:00,VALID,916.903,VALID,0,VALID,92.4902,VALID,-0.0509425,VALID,18.6331,VALID,38,VALID,1.3856,
2004-02-04, 01:10:00,VALID,916.926,VALID,0,VALID,92.5169,VALID,-0.0509425,VALID,18.6525,VALID,36,VALID,1.13709,
2004-02-04, 01:11:00,VALID,916.949,VALID,0,VALID,92.6339,VALID,-0.0509425,VALID,18.6527,VALID,38,VALID,0.927401,
2004-02-04, 01:12:00,VALID,916.957,VALID,0,VALID,92.7547,VALID,-0.0679233,VALID,18.6304,VALID,38,VALID,0.841694,
2004-02-04, 01:13:00,VALID,916.968,VALID,0,VALID,92.8437,VALID,-0.0339617,VALID,18.6142,VALID,38,VALID,0.469122,
2004-02-04, 01:14:00,VALID,916.974,VALID,0,VALID,92.4291,VALID,-0.0509425,VALID,18.5884,VALID,38,VALID,0.468395,
2004-02-04, 01:15:00,VALID,916.965,VALID,0,VALID,92.0743,VALID,-0.0339617,VALID,18.5914,VALID,38,VALID,0.324219,
2004-02-04, 01:16:00,VALID,916.954,VALID,0,VALID,91.2453,VALID,-0.0339617,VALID,18.581,VALID,57,VALID,0.44112,
2004-02-04, 01:17:00,VALID,916.947,VALID,0,VALID,90.509,VALID,-0.0509425,VALID,18.6135,VALID,84,VALID,0.646019,
2004-02-04, 01:18:00,VALID,916.944,VALID,0,VALID,90.537,VALID,-0.0849042,VALID,18.6853,VALID,109,VALID,0.885938,
2004-02-04, 01:19:00,VALID,916.929,VALID,0,VALID,90.9261,VALID,-0.0849042,VALID,18.7496,VALID,121,VALID,1.00556,
2004-02-04, 01:20:00,VALID,916.921,VALID,0,VALID,91.2097,VALID,-0.0679233,VALID,18.7687,VALID,125,VALID,1.11062,
2004-02-04, 01:21:00,VALID,916.91,VALID,0,VALID,91.0176,VALID,-0.0679233,VALID,18.7685,VALID,129,VALID,1.12198,
2004-02-04, 01:22:00,VALID,916.902,VALID,0,VALID,91.1613,VALID,-0.0509425,VALID,18.7754,VALID,129,VALID,1.00781,
2004-02-04, 01:23:00,VALID,916.884,VALID,0,VALID,91.2809,VALID,-0.0509425,VALID,18.7655,VALID,147,VALID,0.833854,
2004-02-04, 01:24:00,VALID,916.857,VALID,0,VALID,91.4398,VALID,-0.0509425,VALID,18.7595,VALID,146,VALID,0.850977,
2004-02-04, 01:25:00,VALID,916.856,VALID,0,VALID,92.007,VALID,-0.0679233,VALID,18.7496,VALID,138,VALID,0.873047,
2004-02-04, 01:26:00,VALID,916.834,VALID,0,VALID,92.7979,VALID,-0.0509425,VALID,18.7335,VALID,133,VALID,0.842988,
2004-02-04, 01:27:00,VALID,916.824,VALID,0,VALID,93.1743,VALID,-0.0679233,VALID,18.7076,VALID,128,VALID,0.383523,
2004-02-04, 01:28:00,VALID,916.817,VALID,0,VALID,93.5469,VALID,-0.0339617,VALID,18.6721,VALID,128,VALID,0.685802,
2004-02-04, 01:29:00,VALID,916.824,VALID,0,VALID,93.866,VALID,-0.0509425,VALID,18.6334,VALID,128,VALID,0.627096,
2004-02-04, 01:30:00,VALID,916.814,VALID,0,VALID,94.1852,VALID,-0.0339617,VALID,18.5886,VALID,128,VALID,0.615327,
2004-02-04, 01:31:00,VALID,916.818,VALID,0,VALID,94.5476,VALID,-0.0679233,VALID,18.5434,VALID,128,VALID,0.523801,
2004-02-04, 01:32:00,VALID,916.824,VALID,0,VALID,94.8083,VALID,-0.0849042,VALID,18.5012,VALID,128,VALID,0.612233,
2004-02-04, 01:33:00,VALID,916.814,VALID,0,VALID,95.0702,VALID,-0.101885,VALID,18.4593,VALID,123,VALID,1.04042,
2004-02-04, 01:34:00,VALID,916.83,VALID,0,VALID,95.3093,VALID,-0.0679233,VALID,18.4463,VALID,110,VALID,0.842147,
2004-02-04, 01:35:00,VALID,916.827,VALID,0,VALID,94.5591,VALID,-0.0509425,VALID,18.3945,VALID,107,VALID,1.14643,
2004-02-04, 01:36:00,VALID,916.836,VALID,0,VALID,92.2651,VALID,-0.0509425,VALID,18.3915,VALID,109,VALID,0.95,
2004-02-04, 01:37:00,VALID,916.831,VALID,0,VALID,92.5537,VALID,-0.0339617,VALID,18.5047,VALID,106,VALID,0.649926,
2004-02-04, 01:38:00,VALID,916.826,VALID,0,VALID,92.9556,VALID,-0.101885,VALID,18.5852,VALID,88,VALID,0.377362,
2004-02-04, 01:39:00,VALID,916.826,VALID,0,VALID,92.232,VALID,-0.0849042,VALID,18.5919,VALID,124,VALID,0.654861,
2004-02-04, 01:40:00,VALID,916.814,VALID,0,VALID,91.937,VALID,-0.101885,VALID,18.5889,VALID,137,VALID,0.831445,
2004-02-04, 01:41:00,VALID,916.799,VALID,0,VALID,91.6814,VALID,-0.0849042,VALID,18.5949,VALID,148,VALID,0.973958,
2004-02-04, 01:42:00,VALID,916.782,VALID,0,VALID,91.6026,VALID,-0.101885,VALID,18.6214,VALID,140,VALID,0.890447,
2004-02-04, 01:43:00,VALID,916.772,VALID,0,VALID,91.3775,VALID,-0.0169808,VALID,18.6599,VALID,136,VALID,0.796303,
2004-02-04, 01:44:00,VALID,916.749,VALID,0,VALID,91.6458,VALID,-0.0169808,VALID,18.6977,VALID,134,VALID,0.552379,
2004-02-04, 01:45:00,VALID,916.747,VALID,0,VALID,91.8187,VALID,-0.0339617,VALID,18.7175,VALID,134,VALID,0.340843,
2004-02-04, 01:46:00,VALID,916.744,VALID,0,VALID,91.586,VALID,-0.0339617,VALID,18.7044,VALID,134,VALID,0.459121,
2004-02-04, 01:47:00,VALID,916.728,VALID,0,VALID,91.2923,VALID,-0.0339617,VALID,18.7178,VALID,134,VALID,0.491815,
2004-02-04, 01:48:00,VALID,916.721,VALID,0,VALID,91.6293,VALID,-0.0169808,VALID,18.7501,VALID,134,VALID,0.146802,
2004-02-04, 01:49:00,VALID,916.722,VALID,0,VALID,91.6522,VALID,-0.0169808,VALID,18.7662,VALID,134,VALID,0.337984,
2004-02-04, 01:50:00,VALID,916.713,VALID,0,VALID,92.0451,VALID,-0.0169808,VALID,18.766,VALID,134,VALID,0.410528,
2004-02-04, 01:51:00,VALID,916.702,VALID,0,VALID,90.7684,VALID,-0.0169808,VALID,18.7627,VALID,134,VALID,0.561311,
2004-02-04, 01:52:00,VALID,916.693,VALID,0,VALID,89.8541,VALID,0,VALID,18.7496,VALID,134,VALID,0.815952,
2004-02-04, 01:53:00,VALID,916.677,VALID,0,VALID,90.2585,VALID,0,VALID,18.8077,VALID,134,VALID,0.899796,
2004-02-04, 01:54:00,VALID,916.67,VALID,0,VALID,90.6616,VALID,0,VALID,18.8368,VALID,121,VALID,0.700763,
2004-02-04, 01:55:00,VALID,916.651,VALID,0,VALID,91.7603,VALID,0,VALID,18.8107,VALID,106,VALID,0.362043,
2004-02-04, 01:56:00,VALID,916.617,VALID,0,VALID,92.5728,VALID,0,VALID,18.7561,VALID,106,VALID,0.368164,
2004-02-04, 01:57:00,VALID,916.599,VALID,0,VALID,92.5219,VALID,0,VALID,18.6786,VALID,107,VALID,0.570131,
2004-02-04, 01:58:00,VALID,916.592,VALID,0,VALID,92.7521,VALID,-0.0169808,VALID,18.6403,VALID,137,VALID,0.995703,
2004-02-04, 01:59:00,VALID,916.563,VALID,0,VALID,91.2058,VALID,0,VALID,18.572,VALID,140,VALID,1.38597,
2004-02-04, 02:00:00,VALID,916.555,VALID,0,VALID,90.963,VALID,-0.0339617,VALID,18.5527,VALID,137,VALID,0.892535,
2004-02-04, 02:01:00,VALID,916.546,VALID,0,VALID,91.4538,VALID,0.0169808,VALID,18.5817,VALID,103,VALID,0.806212,
2004-02-04, 02:02:00,VALID,916.537,VALID,0,VALID,92.3986,VALID,-0.0339617,VALID,18.5981,VALID,87,VALID,0.507031,
2004-02-04, 02:03:00,VALID,916.533,VALID,0,VALID,93.1959,VALID,0,VALID,18.572,VALID,88,VALID,0.465021,
2004-02-04, 02:04:00,VALID,916.522,VALID,0,VALID,93.5303,VALID,0,VALID,18.5238,VALID,86,VALID,0.492867,
2004-02-04, 02:05:00,VALID,916.513,VALID,0,VALID,93.8253,VALID,0,VALID,18.4789,VALID,80,VALID,0.640443,
2004-02-04, 02:06:00,VALID,916.487,VALID,0,VALID,94.0123,VALID,0,VALID,18.4136,VALID,79,VALID,0.803416,
2004-02-04, 02:07:00,VALID,916.467,VALID,0,VALID,93.8508,VALID,0,VALID,18.3654,VALID,79,VALID,0.744855,
2004-02-04, 02:08:00,VALID,916.43,VALID,0,VALID,94.2462,VALID,0,VALID,18.343,VALID,82,VALID,0.634146,
2004-02-04, 02:09:00,VALID,916.415,VALID,0,VALID,94.3518,VALID,0,VALID,18.3101,VALID,99,VALID,0.78016,
2004-02-04, 02:10:00,VALID,916.399,VALID,0,VALID,94.7358,VALID,0,VALID,18.2974,VALID,117,VALID,0.821221,
2004-02-04, 02:11:00,VALID,916.37,VALID,0,VALID,94.7727,VALID,0,VALID,18.2976,VALID,135,VALID,1.07757,
2004-02-04, 02:12:00,VALID,916.358,VALID,0,VALID,94.1699,VALID,0.0169808,VALID,18.2549,VALID,136,VALID,1.1353,
2004-02-04, 02:13:00,VALID,916.339,VALID,0,VALID,93.6104,VALID,0,VALID,18.233,VALID,133,VALID,1.16215,
2004-02-04, 02:14:00,VALID,916.323,VALID,0,VALID,93.0751,VALID,0.0169808,VALID,18.2229,VALID,136,VALID,1.18395,
2004-02-04, 02:15:00,VALID,916.306,VALID,0,VALID,92.4927,VALID,0,VALID,18.2685,VALID,137,VALID,1.2561,
2004-02-04, 02:16:00,VALID,916.291,VALID,0,VALID,92.054,VALID,0,VALID,18.3202,VALID,141,VALID,1.06938,
2004-02-04, 02:17:00,VALID,916.278,VALID,0,VALID,91.9955,VALID,0,VALID,18.3919,VALID,133,VALID,0.963796,
2004-02-04, 02:18:00,VALID,916.251,VALID,0,VALID,92.2193,VALID,0.0169808,VALID,18.4397,VALID,126,VALID,0.99858,
2004-02-04, 02:19:00,VALID,916.234,VALID,0,VALID,92.4329,VALID,0,VALID,18.4719,VALID,124,VALID,1.05393,
2004-02-04, 02:20:00,VALID,916.209,VALID,0,VALID,92.438,VALID,0,VALID,18.4784,VALID,112,VALID,1.05449,
2004-02-04, 02:21:00,VALID,916.178,VALID,0,VALID,92.157,VALID,0,VALID,18.4849,VALID,105,VALID,0.734375,
2004-02-04, 02:22:00,VALID,916.168,VALID,0,VALID,92.3452,VALID,0.0339617,VALID,18.5045,VALID,104,VALID,0.743521,
2004-02-04, 02:23:00,VALID,916.158,VALID,0,VALID,91.3139,VALID,0.0169808,VALID,18.4881,VALID,107,VALID,0.802202,
2004-02-04, 02:24:00,VALID,916.149,VALID,0,VALID,91.6153,VALID,0,VALID,18.5107,VALID,115,VALID,0.928622,
2004-02-04, 02:25:00,VALID,916.138,VALID,0,VALID,91.9001,VALID,0.0169808,VALID,18.5204,VALID,132,VALID,1.04578,
2004-02-04, 02:26:00,VALID,916.148,VALID,0,VALID,91.979,VALID,0,VALID,18.4941,VALID,135,VALID,0.991279,
2004-02-04, 02:27:00,VALID,916.147,VALID,0,VALID,92.1036,VALID,0,VALID,18.4717,VALID,128,VALID,0.770833,
2004-02-04, 02:28:00,VALID,916.14,VALID,0,VALID,91.4716,VALID,0.0169808,VALID,18.4426,VALID,122,VALID,1.32546,
2004-02-04, 02:29:00,VALID,916.136,VALID,0,VALID,90.9591,VALID,0,VALID,18.4463,VALID,123,VALID,1.22443,
2004-02-04, 02:30:00,VALID,916.138,VALID,0,VALID,90.743,VALID,0,VALID,18.4816,VALID,123,VALID,1.11387,
2004-02-04, 02:31:00,VALID,916.129,VALID,0,VALID,91.01,VALID,0,VALID,18.4913,VALID,113,VALID,0.957508,
2004-02-04, 02:32:00,VALID,916.113,VALID,0,VALID,91.3737,VALID,0,VALID,18.4849,VALID,109,VALID,0.806593,
2004-02-04, 02:33:00,VALID,916.095,VALID,0,VALID,91.361,VALID,0,VALID,18.4463,VALID,111,VALID,0.881037,
2004-02-04, 02:34:00,VALID,916.088,VALID,0,VALID,90.3424,VALID,0,VALID,18.4101,VALID,115,VALID,0.968378,
2004-02-04, 02:35:00,VALID,916.078,VALID,0,VALID,89.9787,VALID,0,VALID,18.456,VALID,100,VALID,0.672763,
2004-02-04, 02:36:00,VALID,916.073,VALID,0,VALID,89.0695,VALID,0.0169808,VALID,18.5167,VALID,90,VALID,0.985491,
2004-02-04, 02:37:00,VALID,916.065,VALID,0,VALID,87.6593,VALID,0,VALID,18.6075,VALID,93,VALID,0.79154,
2004-02-04, 02:38:00,VALID,916.065,VALID,0,VALID,87.5322,VALID,0,VALID,18.7635,VALID,90,VALID,0.664608,
2004-02-04, 02:39:00,VALID,916.062,VALID,0,VALID,89.1903,VALID,0,VALID,18.8532,VALID,74,VALID,0.359375,
2004-02-04, 02:40:00,VALID,916.054,VALID,0,VALID,89.1573,VALID,-0.0169808,VALID,18.8335,VALID,70,VALID,0.332332,
2004-02-04, 02:41:00,VALID,916.068,VALID,0,VALID,88.6842,VALID,0,VALID,18.8013,VALID,70,VALID,0.28125,
2004-02-04, 02:42:00,VALID,916.04,VALID,0,VALID,89.596,VALID,0.0169808,VALID,18.795,VALID,70,VALID,0.0795139,
2004-02-04, 02:43:00,VALID,916.037,VALID,0,VALID,89.8274,VALID,-0.0339617,VALID,18.7791,VALID,70,VALID,0.00177557,
2004-02-04, 02:44:00,VALID,916.034,VALID,0,VALID,89.3709,VALID,-0.0509425,VALID,18.7339,VALID,70,VALID,0,
2004-02-04, 02:45:00,VALID,916.018,VALID,0,VALID,89.2972,VALID,-0.0679233,VALID,18.7049,VALID,70,VALID,0.0582217,
2004-02-04, 02:46:00,VALID,916.02,VALID,0,VALID,90.5293,VALID,-0.0849042,VALID,18.6823,VALID,70,VALID,0.177649,
2004-02-04, 02:47:00,VALID,916.006,VALID,0,VALID,90.303,VALID,-0.0849042,VALID,18.6438,VALID,77,VALID,0.388579,
2004-02-04, 02:48:00,VALID,915.99,VALID,0,VALID,90.2928,VALID,-0.0679233,VALID,18.5886,VALID,96,VALID,0.491016,
2004-02-04, 02:49:00,VALID,915.96,VALID,0,VALID,92.0108,VALID,-0.0169808,VALID,18.5723,VALID,113,VALID,1.02383,
2004-02-04, 02:50:00,VALID,915.953,VALID,0,VALID,92.2409,VALID,-0.0169808,VALID,18.5238,VALID,110,VALID,1.18788,
2004-02-04, 02:51:00,VALID,915.938,VALID,0,VALID,90.7697,VALID,-0.0509425,VALID,18.4597,VALID,107,VALID,1.15486,
2004-02-04, 02:52:00,VALID,915.941,VALID,0,VALID,90.3742,VALID,-0.0679233,VALID,18.4821,VALID,122,VALID,1.43643,
2004-02-04, 02:53:00,VALID,915.937,VALID,0,VALID,89.4141,VALID,-0.0679233,VALID,18.5017,VALID,122,VALID,1.45313,
2004-02-04, 02:54:00,VALID,915.915,VALID,0,VALID,89.2997,VALID,-0.0849042,VALID,18.573,VALID,120,VALID,1.37009,
2004-02-04, 02:55:00,VALID,915.901,VALID,0,VALID,89.7689,VALID,-0.101885,VALID,18.6082,VALID,127,VALID,1.57584,
2004-02-04, 02:56:00,VALID,915.894,VALID,0,VALID,90.0983,VALID,-0.0679233,VALID,18.6281,VALID,127,VALID,1.49888,
2004-02-04, 02:57:00,VALID,915.891,VALID,0,VALID,90.6247,VALID,-0.101885,VALID,18.6184,VALID,129,VALID,1.36942,
2004-02-04, 02:58:00,VALID,915.897,VALID,0,VALID,90.8638,VALID,-0.0509425,VALID,18.5919,VALID,128,VALID,1.30273,
2004-02-04, 02:59:00,VALID,915.897,VALID,0,VALID,90.9502,VALID,0.0169808,VALID,18.5582,VALID,127,VALID,1.33505,
2004-02-04, 03:00:00,VALID,915.897,VALID,0,VALID,91.216,VALID,0,VALID,18.5487,VALID,122,VALID,1.13481,
2004-02-04, 03:01:00,VALID,915.903,VALID,0,VALID,91.4932,VALID,0.0169808,VALID,18.5328,VALID,104,VALID,0.930556,
2004-02-04, 03:02:00,VALID,915.886,VALID,0,VALID,91.01,VALID,0,VALID,18.4839,VALID,106,VALID,1.0684,
2004-02-04, 03:03:00,VALID,915.888,VALID,0,VALID,90.9223,VALID,0.0339617,VALID,18.4844,VALID,97,VALID,0.921484,
2004-02-04, 03:04:00,VALID,915.889,VALID,0,VALID,90.2127,VALID,0,VALID,18.4807,VALID,84,VALID,1.02307,
2004-02-04, 03:05:00,VALID,915.885,VALID,0,VALID,89.2425,VALID,0.0169808,VALID,18.5197,VALID,91,VALID,1.02676,
2004-02-04, 03:06:00,VALID,915.88,VALID,0,VALID,88.0167,VALID,0,VALID,18.5974,VALID,94,VALID,1.04633,
2004-02-04, 03:07:00,VALID,915.88,VALID,0,VALID,88.0217,VALID,0.0169808,VALID,18.7231,VALID,102,VALID,0.970796,
2004-02-04, 03:08:00,VALID,915.87,VALID,0,VALID,88.2379,VALID,0,VALID,18.8035,VALID,107,VALID,1.09261,
2004-02-04, 03:09:00,VALID,915.868,VALID,0,VALID,89.4078,VALID,0.0509425,VALID,18.8358,VALID,116,VALID,1.12809,
2004-02-04, 03:10:00,VALID,915.854,VALID,0,VALID,89.9075,VALID,0.0679233,VALID,18.8068,VALID,123,VALID,1.00457,
2004-02-04, 03:11:00,VALID,915.854,VALID,0,VALID,90.1657,VALID,0.0339617,VALID,18.7583,VALID,116,VALID,0.913681,
2004-02-04, 03:12:00,VALID,915.842,VALID,0,VALID,90.2941,VALID,0.0339617,VALID,18.6938,VALID,127,VALID,0.88681,
2004-02-04, 03:13:00,VALID,915.823,VALID,0,VALID,90.4302,VALID,0.0339617,VALID,18.6456,VALID,132,VALID,0.738672,
2004-02-04, 03:14:00,VALID,915.803,VALID,0,VALID,89.8033,VALID,-0.0679233,VALID,18.6216,VALID,134,VALID,1.05035,
2004-02-04, 03:15:00,VALID,915.794,VALID,0,VALID,89.6825,VALID,-0.0339617,VALID,18.6085,VALID,132,VALID,0.877668,
2004-02-04, 03:16:00,VALID,915.775,VALID,0,VALID,88.7237,VALID,-0.0849042,VALID,18.5914,VALID,145,VALID,0.976563,
2004-02-04, 03:17:00,VALID,915.787,VALID,0,VALID,88.0993,VALID,-0.0679233,VALID,18.6249,VALID,143,VALID,0.871181,
2004-02-04, 03:18:00,VALID,915.774,VALID,0,VALID,87.7611,VALID,-0.0849042,VALID,18.6726,VALID,147,VALID,0.965661,
2004-02-04, 03:19:00,VALID,915.78,VALID,0,VALID,88.0459,VALID,-0.0339617,VALID,18.7275,VALID,140,VALID,1.13778,
2004-02-04, 03:20:00,VALID,915.784,VALID,0,VALID,87.461,VALID,-0.0509425,VALID,18.7759,VALID,142,VALID,1.39774,
2004-02-04, 03:21:00,VALID,915.785,VALID,0,VALID,86.8035,VALID,-0.101885,VALID,18.8631,VALID,138,VALID,1.25835,
2004-02-04, 03:22:00,VALID,915.777,VALID,0,VALID,86.3318,VALID,-0.0169808,VALID,18.9505,VALID,135,VALID,1.08073,
2004-02-04, 03:23:00,VALID,915.792,VALID,0,VALID,86.6726,VALID,-0.0509425,VALID,18.9918,VALID,128,VALID,1.0061,
2004-02-04, 03:24:00,VALID,915.807,VALID,0,VALID,86.6929,VALID,-0.0509425,VALID,19.0114,VALID,112,VALID,0.963796,
2004-02-04, 03:25:00,VALID,915.826,VALID,0,VALID,88.4999,VALID,-0.0509425,VALID,19.0054,VALID,73,VALID,0.787348,
2004-02-04, 03:26:00,VALID,915.841,VALID,0,VALID,90.1428,VALID,-0.0679233,VALID,18.8951,VALID,64,VALID,0.734375,
2004-02-04, 03:27:00,VALID,915.837,VALID,0,VALID,90.2407,VALID,-0.0169808,VALID,18.7337,VALID,75,VALID,0.760099,
2004-02-04, 03:28:00,VALID,915.833,VALID,0,VALID,89.7206,VALID,0,VALID,18.6361,VALID,79,VALID,0.669829,
2004-02-04, 03:29:00,VALID,915.833,VALID,0,VALID,90.8956,VALID,0.0509425,VALID,18.6128,VALID,68,VALID,0.526786,
2004-02-04, 03:30:00,VALID,915.825,VALID,0,VALID,90.8638,VALID,0.0339617,VALID,18.5259,VALID,82,VALID,0.884448,
2004-02-04, 03:31:00,VALID,915.817,VALID,0,VALID,89.5375,VALID,0.0509425,VALID,18.4837,VALID,91,VALID,1.11632,
2004-02-04, 03:32:00,VALID,915.813,VALID,0,VALID,88.6079,VALID,0.0849042,VALID,18.5393,VALID,112,VALID,1.24396,
2004-02-04, 03:33:00,VALID,915.815,VALID,0,VALID,88.6029,VALID,0.0169808,VALID,18.6423,VALID,115,VALID,1.20153,
2004-02-04, 03:34:00,VALID,915.829,VALID,0,VALID,88.4528,VALID,0.0509425,VALID,18.7067,VALID,116,VALID,1.3472,
2004-02-04, 03:35:00,VALID,915.834,VALID,0,VALID,88.6741,VALID,0.0339617,VALID,18.7491,VALID,108,VALID,1.07774,
2004-02-04, 03:36:00,VALID,915.832,VALID,0,VALID,88.594,VALID,0.0169808,VALID,18.739,VALID,115,VALID,1.49562,